[[{"header":{"parameterUnit":"m.s-1","parameterCategory":1,"la1":30.2991,"la2":30.254,"lo1":-89.0895,"lo2":-89.0444,"dy":0.0017,"dx":0.0017,"nx":28,"ny":28,"refTime":"2025-05-21T03:00:00:Z","depth":0,"parameterNumber":2,"parameterNumberName":"U-component_of_WINDS"},"data":[0,0,0,0,0,0,0,0,0,0,0,0,0,0,0,0,0,0,0,0,0,0,0,0,0,0,0,0,0,0,0,0,0,0,0,0,0,0,0,0,0,0,0,0,0,0,0,0,0,0,0,0,0,0,0,0,0,0,2.451,2.4512,0,2.4643,2.4645,2.4646,2.4618,2.4616,2.4613,2.4611,2.4753,2.4759,2.4765,0,0,0,0,0,0,0,0,0,0,0,0,0,2.4239,2.4244,2.451,2.4512,2.4513,2.4643,2.4645,2.4647,2.4619,2.4616,2.4613,2.461,2.4751,2.4758,2.4765,0,0,0,0,0,0,0,0,0,0,0,0,0,2.4363,2.4245,2.451,2.4515,2.4517,2.4643,2.4645,2.4647,2.4619,2.4616,2.4612,2.4608,2.4748,2.4757,2.4766,2.4897,0,0,2.4794,2.4798,0,0,0,0,0,0,0,0,2.4356,2.4373,2.4513,2.4515,2.4517,2.461,2.4601,2.4731,2.462,2.4581,2.4611,2.4607,2.4709,2.4721,2.4754,2.4904,2.491,2.4795,2.48,2.4804,2.4807,0,0,0,0,0,0,0,2.4347,2.4367,2.4563,2.4515,2.4517,2.4513,2.4526,2.4626,2.4664,2.4584,2.4582,2.4598,2.4709,2.4745,2.4757,2.4912,2.4795,2.4803,2.4808,2.4812,2.5179,2.5183,0,0,0,0,0,0,2.4336,2.436,2.4559,2.4567,2.4425,2.4521,2.4536,2.4584,2.4663,2.4671,2.4601,2.4596,2.4732,2.4747,2.4762,2.4923,2.4804,2.4813,2.4818,2.5175,2.518,2.5184,0,0,0,0,0,0,2.433,2.4354,2.4553,2.4463,2.4488,2.4529,2.4584,2.4589,2.4625,2.4676,2.4683,2.463,2.4729,2.4749,2.4864,2.4927,2.4817,2.4825,2.517,2.5176,2.5182,2.5244,0,0,0,0,0,0,2.4322,2.4352,2.44,2.4464,2.4493,2.4651,2.4588,2.4594,2.464,2.4635,2.4705,2.4713,2.4728,2.4851,2.4873,2.4938,2.4832,2.5164,2.5173,2.518,2.5236,2.5251,2.5264,0,0,0,0,0,2.4313,2.4412,2.4403,2.4427,2.4554,2.4655,2.4671,2.4684,2.4645,2.4696,2.4729,2.4711,2.4916,2.4863,2.4888,2.4956,2.516,2.517,2.518,2.523,2.5248,2.5264,0,0,0,0,0,0,2.4356,2.4421,2.4411,2.4534,2.4589,2.465,2.4713,2.4703,2.4772,2.4764,2.4779,2.4796,2.4913,2.4946,2.4885,2.5089,2.5033,2.5048,2.5063,2.5081,2.5095,2.5085,2.484,0,0,0,0,0,2.4379,2.4454,2.4507,2.4611,2.4639,2.4672,2.4716,2.4721,2.478,2.4803,2.4845,2.4904,2.4982,2.5033,2.5107,2.524,2.5257,2.53,2.5314,2.5326,2.5339,2.5415,2.5436,2.5216,2.5216,2.5216,0,0,2.4429,2.4474,2.452,2.4621,2.4664,2.4744,2.4691,2.4777,2.4837,2.4817,2.4928,2.4961,2.5028,2.5153,2.521,2.5184,2.5404,2.5338,2.5346,2.5354,2.5427,2.5448,2.5467,2.5223,2.5221,2.522,0,0,2.4561,2.4601,2.4693,2.4738,2.4804,2.4825,2.4848,2.4911,2.4932,2.5043,2.503,2.5103,2.5236,2.5285,2.5328,2.5481,2.5469,2.5505,2.5579,2.5653,2.5671,2.5686,2.5744,2.5764,2.5518,2.5518,2.5518,0,2.4616,2.4732,2.4742,2.483,2.4876,2.4861,2.4956,2.4999,2.5087,2.512,2.5089,2.5258,2.5301,2.544,2.5477,2.5511,2.5539,2.5498,2.5667,2.5683,2.5697,2.5752,2.5774,2.5522,2.5522,2.5521,2.5521,0,2.4798,2.4879,2.4946,2.503,2.5084,2.5175,2.5201,2.5254,2.5256,2.5281,2.5397,2.5449,2.5535,2.5568,2.557,2.5708,2.569,2.5663,2.5608,2.5722,2.5774,2.5795,2.5528,2.5527,2.5525,2.5524,0,0,2.496,2.505,2.5074,2.5114,2.5186,2.5251,2.5343,2.5425,2.5472,2.5534,2.5613,2.5727,2.5703,2.5752,2.5759,2.5824,2.5946,2.579,2.5792,2.5819,2.6104,2.6125,2.6149,2.5938,2.5942,2.5945,2.6099,0,2.51,2.526,2.5273,2.5418,2.5495,2.5483,2.5563,2.5618,2.5645,2.5717,2.5747,2.5828,2.5789,2.5819,2.5882,2.5918,2.6004,2.5906,2.6015,2.6018,2.6,2.6176,2.6198,2.6342,2.612,2.6123,2.6125,0,2.5285,2.5352,2.5504,2.5569,2.5602,2.5673,2.5752,2.5819,2.5883,2.5898,2.5953,2.5953,2.605,2.599,2.6126,2.606,2.6105,2.6129,2.6135,2.6147,2.608,2.6195,2.6387,2.641,2.6157,2.6155,2.6152,0,2.5392,2.5519,2.5628,2.5662,2.5739,2.579,2.5825,2.5884,2.5934,2.6003,2.6037,2.6117,2.6161,2.6225,2.6247,2.6201,2.6384,2.6325,2.6401,2.6401,2.6441,2.6439,2.6646,2.6467,2.6467,2.6467,2.6466,0,2.5548,2.5643,2.5677,2.5744,2.5851,2.5866,2.5972,2.6004,2.6057,2.6132,2.6127,2.6198,2.6222,2.6298,2.6316,2.6428,2.6448,2.6465,2.6469,2.6467,2.6465,2.6497,2.6489,2.6472,2.6471,2.647,2.6469,0,2.5685,2.5712,2.583,2.5893,2.5912,2.5988,2.6043,2.6109,2.6135,2.6231,2.6254,2.6296,2.6385,2.6413,2.6521,2.6534,2.6665,2.6659,2.6644,2.6645,2.672,2.6714,2.6957,2.6991,2.6788,2.679,2.6792,0,2.5784,2.5857,2.5928,2.5977,2.6014,2.6093,2.6145,2.6163,2.6217,2.6296,2.6353,2.6441,2.6513,2.6657,2.6698,2.6782,2.678,2.6859,2.6792,2.6788,2.6784,2.678,2.6789,2.6872,2.6874,2.6876,2.6877,0,2.5958,2.5968,2.6041,2.612,2.6181,2.6244,2.6304,2.6346,2.6374,2.6435,2.6526,2.6581,2.6692,2.6781,2.6866,2.6904,2.6898,2.6898,2.6921,2.692,2.6908,2.6918,2.668,2.6893,2.6891,2.689,2.6889,2.6889,2.6081,2.6146,2.6207,2.6289,2.6337,2.6394,2.646,2.6495,2.657,2.6661,2.6668,2.6767,2.6831,2.6945,2.6988,2.7067,2.7045,2.7077,2.7085,2.7093,2.71,2.6894,2.7082,2.7082,2.7082,2.7081,2.7081,0,2.6256,2.6295,2.6371,2.6456,2.6522,2.6507,2.6575,2.6631,2.6718,2.6778,2.6848,2.6955,2.7041,2.709,2.7177,2.7231,2.7231,2.7254,2.7251,2.7261,2.7114,2.7087,2.7253,2.7253,2.7253,2.7253,2.7253,2.7253,2.6355,2.6465,2.6483,2.6618,2.6657,2.6753,2.6793,2.6847,2.6895,2.7013,2.7085,2.7115,2.7172,2.7263,2.7343,2.7355,2.7389,2.7415,2.7426,2.7288,2.7271,2.7254,2.7228,2.7422,2.7422,2.7566,2.7567,2.7568]},{"header":{"parameterUnit":"m.s-1","parameterCategory":1,"la1":30.2991,"la2":30.254,"lo1":-89.0895,"lo2":-89.0444,"dy":0.0017,"dx":0.0017,"nx":28,"ny":28,"refTime":"2025-05-21T03:00:00:Z","depth":0,"parameterNumber":3,"parameterNumberName":"V-component_of_WINDS"},"data":[0,0,0,0,0,0,0,0,0,0,0,0,0,0,0,0,0,0,0,0,0,0,0,0,0,0,0,0,0,0,0,0,0,0,0,0,0,0,0,0,0,0,0,0,0,0,0,0,0,0,0,0,0,0,0,0,0,0,0.3804,0.3805,0,0.3874,0.3875,0.3876,0.3858,0.3856,0.3855,0.3854,0.3927,0.393,0.3933,0,0,0,0,0,0,0,0,0,0,0,0,0,0.3655,0.3658,0.3804,0.3805,0.3806,0.3874,0.3875,0.3876,0.3858,0.3856,0.3855,0.3853,0.3926,0.393,0.3933,0,0,0,0,0,0,0,0,0,0,0,0,0,0.3722,0.3659,0.3804,0.3805,0.3806,0.3874,0.3875,0.3876,0.3858,0.3856,0.3854,0.3852,0.3925,0.3929,0.3934,0.4006,0,0,0.3949,0.3951,0,0,0,0,0,0,0,0,0.3718,0.3727,0.3804,0.3805,0.3806,0.3855,0.3849,0.392,0.3859,0.3839,0.3854,0.3851,0.3905,0.3911,0.3929,0.4009,0.4012,0.3949,0.3952,0.3954,0.3956,0,0,0,0,0,0,0,0.3714,0.3724,0.3832,0.3805,0.3807,0.3802,0.3809,0.3863,0.3883,0.384,0.3839,0.3847,0.3905,0.3924,0.393,0.4013,0.3949,0.3953,0.3956,0.3958,0.4152,0.4154,0,0,0,0,0,0,0.3708,0.3721,0.383,0.3834,0.3756,0.3807,0.3815,0.3842,0.3882,0.3886,0.3849,0.3846,0.3917,0.3925,0.3933,0.4017,0.3954,0.3959,0.3962,0.415,0.4153,0.4155,0,0,0,0,0,0,0.3705,0.3718,0.3827,0.3777,0.3791,0.3811,0.3842,0.3844,0.3863,0.3889,0.3892,0.3865,0.3916,0.3926,0.3987,0.4019,0.3961,0.3965,0.4148,0.4151,0.4154,0.4187,0,0,0,0,0,0,0.3701,0.3717,0.3744,0.3778,0.3793,0.388,0.3844,0.3847,0.3871,0.3868,0.3905,0.3909,0.3915,0.398,0.3992,0.4025,0.3969,0.4145,0.4149,0.4153,0.4183,0.4191,0.4197,0,0,0,0,0,0.3695,0.3752,0.3746,0.3759,0.3828,0.3882,0.3891,0.3896,0.3874,0.3902,0.3918,0.3907,0.4014,0.3986,0.3999,0.4034,0.4143,0.4148,0.4153,0.4179,0.4189,0.4197,0,0,0,0,0,0,0.3723,0.3756,0.375,0.3819,0.3847,0.3878,0.3913,0.3907,0.3943,0.3938,0.3944,0.3952,0.4014,0.4031,0.3999,0.4104,0.4075,0.4083,0.4091,0.41,0.4107,0.4101,0.3973,0,0,0,0,0,0.3737,0.3777,0.3805,0.3863,0.3877,0.3893,0.3917,0.3918,0.3948,0.396,0.3981,0.4011,0.405,0.4077,0.4115,0.4186,0.4192,0.4216,0.4223,0.4229,0.4236,0.4271,0.4281,0.4172,0.4172,0.4172,0,0,0.3766,0.379,0.3815,0.3869,0.3891,0.3932,0.3903,0.3949,0.3979,0.3968,0.4025,0.4041,0.4075,0.414,0.4169,0.4155,0.4267,0.4236,0.424,0.4243,0.4277,0.4288,0.4297,0.4175,0.4175,0.4174,0,0,0.384,0.3863,0.3912,0.3935,0.3968,0.3978,0.399,0.4022,0.4031,0.4089,0.408,0.4117,0.4186,0.4209,0.423,0.4311,0.4302,0.4324,0.4362,0.4396,0.4405,0.4412,0.4439,0.4448,0.433,0.433,0.433,0,0.3873,0.3934,0.3939,0.3984,0.4007,0.3998,0.4047,0.4069,0.4114,0.4129,0.4113,0.4198,0.422,0.4289,0.4308,0.4327,0.4339,0.4319,0.4403,0.4411,0.4418,0.4443,0.4453,0.4333,0.4332,0.4332,0.4332,0,0.3971,0.4014,0.405,0.4091,0.4119,0.4166,0.4177,0.4204,0.4204,0.4215,0.4273,0.4299,0.434,0.4357,0.4358,0.4426,0.4416,0.4402,0.4372,0.4431,0.4454,0.4464,0.4336,0.4335,0.4334,0.4334,0,0,0.4064,0.4106,0.4119,0.4137,0.4172,0.4205,0.4252,0.4292,0.4314,0.4345,0.4383,0.4441,0.4427,0.4451,0.4453,0.4484,0.4543,0.4466,0.4467,0.4477,0.4616,0.4625,0.4636,0.4538,0.454,0.4541,0.4612,0,0.4139,0.422,0.4224,0.4297,0.4335,0.4326,0.4366,0.4392,0.4404,0.4438,0.4451,0.449,0.4471,0.4484,0.4515,0.4529,0.457,0.4525,0.4571,0.4573,0.4561,0.4649,0.4659,0.4725,0.4622,0.4624,0.4625,0,0.4237,0.4269,0.4346,0.4373,0.439,0.4425,0.4461,0.4495,0.4523,0.4529,0.4555,0.4552,0.4599,0.4569,0.4632,0.46,0.462,0.463,0.4632,0.4635,0.4601,0.4652,0.4746,0.4755,0.464,0.4639,0.4638,0,0.4294,0.4357,0.441,0.4425,0.446,0.4485,0.45,0.4527,0.455,0.4582,0.4596,0.4634,0.4653,0.4682,0.4689,0.4667,0.4751,0.4722,0.4756,0.4756,0.4773,0.4771,0.4869,0.4789,0.4789,0.4789,0.4789,0,0.4376,0.4422,0.4435,0.4467,0.4518,0.4524,0.4574,0.4588,0.4611,0.4646,0.4641,0.4673,0.4682,0.4716,0.4722,0.4772,0.4782,0.4787,0.4788,0.4786,0.4785,0.4797,0.4792,0.4792,0.4791,0.479,0.479,0,0.4447,0.4458,0.4514,0.4542,0.455,0.4586,0.4609,0.464,0.465,0.4694,0.4704,0.4721,0.476,0.477,0.4818,0.4822,0.488,0.4877,0.4869,0.4869,0.4901,0.4897,0.5009,0.5022,0.4936,0.4936,0.4937,0,0.4497,0.4532,0.4563,0.4585,0.4601,0.4638,0.466,0.4667,0.4691,0.4725,0.4751,0.4789,0.482,0.4883,0.4899,0.4935,0.4932,0.4968,0.4937,0.4933,0.4929,0.4926,0.4928,0.4974,0.4975,0.4975,0.4976,0,0.4585,0.4588,0.4621,0.4655,0.4682,0.471,0.4736,0.4755,0.4765,0.4792,0.4831,0.4855,0.4902,0.494,0.4975,0.4991,0.4984,0.4986,0.4995,0.4993,0.4985,0.4987,0.4883,0.4983,0.4982,0.4982,0.4981,0.4981,0.4645,0.4675,0.47,0.4736,0.4757,0.4781,0.481,0.4824,0.4857,0.4895,0.4897,0.4939,0.4965,0.5012,0.5029,0.5062,0.5051,0.5065,0.5068,0.5071,0.5072,0.4982,0.5069,0.5069,0.5068,0.5068,0.5068,0,0.473,0.4745,0.4779,0.4815,0.4843,0.4834,0.4863,0.4887,0.4924,0.4948,0.4978,0.5022,0.5058,0.5076,0.5112,0.5134,0.5132,0.5143,0.514,0.5143,0.5081,0.5068,0.5144,0.5144,0.5144,0.5144,0.5144,0.5144,0.4777,0.4825,0.4831,0.489,0.4905,0.4945,0.4962,0.4984,0.5003,0.5052,0.5082,0.5093,0.5115,0.5151,0.5183,0.5188,0.52,0.5212,0.5214,0.5156,0.5148,0.5141,0.5128,0.5215,0.5215,0.5273,0.5274,0.5274]}]]